Volver al catálogo

STARLINK-37608

ActivoComunicacionesSSO
NORAD 69037·PAYLOAD·🇺🇸 United States

Lanzado May 6, 2026 desde Vandenberg Space Force Base

Loading…

Próximos Pases (próximas 24 horas)

TLE

ActualizadoSource: CelesTrak SupGP

Época: Sep 15, 2026, 03:34 UTC

1 69037C 26101N   26258.14909722 -.00022010  00000+0 -68254-3 0  2584
2 69037  97.2846 111.7529 0001665  93.8096 196.6369 15.33482077    13

Sigue STARLINK-37608 en tiempo real con AllMySat

Download on the App Store